Location: Titovo Velenje
(46.3592°N, 15.1103°E)
Time: 10:53:32
(UTC+00:00)

Daily predictions for brighter satellites

Satellite Brightness Start Highest point End
(mag) Time Altitude Azimuth Time Altitude Azimuth Time Altitude Azimuth
Cosmos 2154 Rocket 4.5 17:09:46 10° SSE 17:15:23 37° E 17:21:00 10° NNE
ERS-2 3.1 17:12:23 10° NE 17:15:28 25° E 17:18:33 10° SSE
Cosmos 2074 Rocket 4.1 17:10:16 10° S 17:16:23 58° E 17:22:31 10° NNE
Cosmos 2360 Rocket 3.3 17:13:06 10° SSE 17:17:14 21° E 17:21:24 10° NE
Sich 1 3.1 17:15:20 10° S 17:19:43 90° NE 17:24:10 10° N
Cosmos 1602 4.2 17:18:47 10° SSE 17:22:25 39° E 17:26:05 10° NNE
YAOGAN 1 2.6 17:22:00 10° SSE 17:26:14 60° ENE 17:30:31 10° N
Cosmos 1437 3.2 17:25:10 10° NNW 17:28:01 57° W 17:30:51 10° S
GP-B 4.2 17:25:56 10° SE 17:29:25 23° ENE 17:32:56 10° NNE
CZ-2D R/B 4.1 17:26:35 10° S 17:30:18 54° W 17:34:04 10° NNW
Cosmos 1461 3.3 17:26:15 10° SW 17:31:00 87° NW 17:35:46 10° NE
COSMO-SKYMED 1 3.1 17:27:25 10° N 17:31:45 66° WNW 17:36:03 10° SSW
FALCON 9 DEB 4.1 17:28:57 10° NW 17:32:08 34° NNE 17:34:54 13° E
Cosmos 1980 Rocket 3.4 17:27:26 10° SW 17:32:50 44° NW 17:38:18 10° NNE
Cosmos 1500 4.2 17:31:28 10° SE 17:34:31 24° E 17:37:35 10° NE
Cosmos 2184 Rocket 3.9 17:29:39 10° S 17:35:47 77° E 17:42:00 10° N
Helios 1A Rocket 3.1 17:36:25 10° SE 17:40:20 49° ENE 17:44:15 10° N
Abrixas rocket 1.5 17:38:51 10° W 17:41:21 75° NNW 17:43:03 18° ENE
Ariane Rocket 4.3 17:39:16 12° ESE 17:42:32 21° ENE 17:46:14 10° NNE
HJ-1C 3.4 17:39:22 10° SSE 17:42:37 54° ENE 17:45:52 10° N
Meteor 1-25 Rocket 4.3 17:40:12 10° S 17:45:59 86° E 17:51:43 10° NNE
Cosmos 2322 Rocket 2.2 17:40:32 10° S 17:46:03 62° ESE 17:51:35 10° NNE
Cosmos 1633 Rocket 3.0 17:42:01 10° S 17:46:25 87° E 17:50:53 10° N
Cosmos 1707 Rocket 4.2 17:42:38 10° NNW 17:46:58 58° W 17:51:14 10° S
Cosmos 44 Rocket 3.4 17:41:46 10° NW 17:47:02 77° NE 17:52:14 10° SE
DMSP B5D1-3 4.5 17:43:56 10° NNE 17:49:05 65° ESE 17:54:11 10° S
Meteor 1-14 Rocket 4.4 17:44:49 10° SSE 17:50:08 48° E 17:55:26 10° NNE
Okean 1-7 3.9 17:47:26 10° NNE 17:51:15 28° ENE 17:54:31 12° SE
CZ-4B R/B 3.3 17:51:24 10° N 17:54:06 29° WNW 17:56:49 10° SW
SJ-6B 4.0 17:52:51 17° ESE 17:54:48 25° ENE 17:58:08 10° NNE
USA 186 3.3 17:59:43 13° NNE 17:59:43 13° NNE 18:00:16 10° NNE
Meteor 1-18 Rocket 4.3 17:55:39 10° N 18:01:37 86° E 18:07:32 10° S
Okean-O 3.3 17:59:55 10° S 18:04:16 59° W 18:08:40 10° NNW
Cosmos 2219 Rocket 3.5 18:01:15 10° SE 18:04:10 19° ESE 18:04:10 19° ESE
Okean 1 3.5 18:01:58 10° NNW 18:06:00 74° W 18:10:01 10° S
CZ-4 R/B 2.8 18:03:58 10° SSW 18:07:36 39° W 18:11:17 10° NNW
Cosmos 2341 Rocket 4.1 18:03:04 10° SSE 18:09:07 51° E 18:15:10 10° NNE
SL-16 R/B 2.5 18:04:14 10° SSW 18:09:53 73° WNW 18:15:35 10° NNE
USA 305 4.3 18:06:43 10° WNW 18:10:32 30° N 18:13:17 16° NE
Cosmos 2263 Rocket 4.1 18:07:28 10° NW 18:12:19 31° WSW 18:17:08 10° SSW
MetOp-A 4.2 18:07:51 10° SE 18:13:03 53° ENE 18:18:15 10° N
ERBS 3.9 18:11:44 10° W 18:14:44 31° NNW 18:17:00 15° NNE
ARGOS 3.5 18:09:37 10° S 18:15:00 68° WSW 18:20:27 10° NNW
Gbstr 26 Del rocket 4.0 18:15:21 10° W 18:19:44 47° N 18:23:00 21° ENE
USA 307 4.3 18:17:35 10° WNW 18:21:23 30° N 18:23:39 19° NE
Cosmos 2322 4.3 18:16:25 10° SSE 18:21:30 34° ESE 18:26:35 10° NE
ATLAS CENTAUR R/B 1.0 18:18:49 10° SSW 18:22:23 58° ESE 18:23:28 39° ENE
Cosmos 2084 Rocket 3.6 18:18:57 10° NW 18:23:18 74° SW 18:26:12 21° SSE
SL-4 R/B 2.4 18:21:00 10° WNW 18:24:20 38° N 18:25:01 34° NE
Cosmos 1470 Rocket 4.0 18:20:11 10° SSW 18:24:38 66° WNW 18:29:05 10° N
SL-08 RB Rocket 3.9 18:20:27 10° S 18:24:55 70° WSW 18:29:30 10° NNW
USA 306 4.4 18:21:29 10° WNW 18:25:15 29° N 18:27:19 20° NE
CZ-2C R/B 2.7 18:21:06 10° NNE 18:26:38 85° WNW 18:32:00 10° SSW
Cosmos 2237 4.1 18:21:26 10° SSW 18:27:10 85° ESE 18:32:57 10° NNE
Cosmos 1689 Rocket 4.1 18:25:16 10° N 18:27:50 29° WNW 18:30:23 10° SW
Cosmos 2218 Rocket 4.2 18:23:15 10° SSE 18:29:19 48° E 18:35:25 10° NNE
USA 308 4.4 18:28:14 10° WNW 18:32:00 29° N 18:33:47 22° NE
Cosmos 1992 Rocket 4.4 18:28:28 10° SSW 18:33:40 66° WNW 18:38:53 10° NNE
Okean 3 4.1 18:30:57 10° N 18:34:28 37° ENE 18:34:28 37° ENE
ASTEX 1 3.6 18:30:29 10° NNE 18:35:10 44° E 18:36:25 37° SE
Cosmos 1703 Rocket 3.4 18:32:38 10° N 18:37:05 87° E 18:40:23 17° S
H-2A R/B 4.1 18:34:11 10° SSW 18:38:57 31° W 18:43:46 10° NNW
DMSP B5D2-2 4.0 18:36:26 10° NNE 18:41:42 87° ESE 18:46:55 10° SSW
USA 234 3.2 18:36:59 20° ENE 18:41:50 74° SE 18:48:23 10° SW
SeaSat 1 3.1 18:39:47 10° NNE 18:44:38 57° WNW 18:49:27 10° SW
Cosmos 1933 Rocket 4.1 18:41:22 10° SSW 18:45:39 59° WNW 18:50:00 10° N
OBJECT-B 2.0 18:47:22 33° N 18:47:22 33° N 18:49:18 10° N
Aureole 2 Rocket 4.0 18:44:48 10° NW 18:46:51 22° WSW 18:47:11 21° WSW
Resurs 01 Rocket 3.0 18:49:22 25° NNE 18:49:22 25° NNE 18:51:45 10° N
Cosmos 1844 Rocket 2.8 18:42:34 10° NNW 18:48:09 73° WSW 18:51:49 22° SSE
BREEZE-M DEB (TANK) 4.5 18:28:11 10° W 18:48:30 88° S 18:50:59 40° E
Cosmos 864 Rocket 4.4 18:42:38 10° S 18:48:40 61° E 18:54:46 10° NNE
Meteor 1-5 Rocket 4.1 18:44:19 10° SSW 18:49:39 84° W 18:55:12 10° N
Cosmos 2242 Rocket 4.1 18:45:45 10° NNW 18:50:13 61° W 18:54:36 10° S
Cosmos 1666 2.6 18:47:30 10° S 18:51:12 83° W 18:54:58 10° N
Cosmos 2333 4.1 18:46:21 10° SSW 18:51:55 64° ESE 18:57:34 10° NNE
Cosmos 1959 Rocket 4.3 18:48:05 10° S 18:54:06 69° E 19:00:12 10° NNE
Cosmos 1844 3.8 18:50:57 10° NNW 18:56:44 76° WSW 18:59:37 31° SSE
Cosmos 2360 Rocket 2.6 18:55:06 10° SW 19:00:42 64° WNW 19:06:22 10° NNE
Cosmos 2278 Rocket 3.1 18:57:47 10° NNW 19:02:28 33° NE 19:02:28 33° NE
Cosmos 2333 Rocket 2.1 19:01:39 10° SSW 19:07:16 68° ESE 19:08:25 54° ENE
SPOT 3 Rocket 3.8 19:08:58 51° NE 19:08:58 51° NE 19:13:25 10° N
Cosmos 1241 Rocket 4.4 19:03:30 10° NW 19:10:09 87° ENE 19:11:50 53° SE
Cosmos 1777 Rocket 3.9 19:07:56 10° NNW 19:13:12 82° WSW 19:13:54 67° S
Resurs 1-3 4.0 19:17:59 59° NNW 19:17:59 59° NNW 19:21:36 10° NNW
Ariane Rocket 3.4 19:19:27 42° SSW 19:21:02 62° WSW 19:26:07 10° NNW
Cosmos 1943 Rocket 4.4 19:23:45 10° N 19:25:32 13° NNE 19:25:32 13° NNE
SJ 16-02 3.0 19:22:25 10° NNW 19:24:29 26° N 19:24:29 26° N
Cosmos 2322 Rocket 4.2 19:25:53 10° WSW 19:30:31 26° NW 19:35:11 10° N
Meteor 1-11 Rocket 4.1 19:31:25 10° SSW 19:37:05 61° WNW 19:42:40 10° N
Meteor 1-23 Rocket 4.3 19:33:01 10° NNW 19:38:06 73° NW 19:38:06 73° NW
Cosmos 2219 Rocket 3.2 19:42:54 10° SW 19:56:15 - NNE 19:46:09 36° SW
ATLAS CENTAUR R/B 4.2 19:59:01 10° W 19:59:42 13° WNW 19:59:42 13° WNW
Resurs 01 Rocket 4.3 20:26:56 17° NW 20:26:56 17° NW 20:28:11 10° NW
USA 234 3.9 20:24:19 48° NNW 20:24:40 49° NNW 20:30:53 10° W
Cosmos 2278 Rocket 4.1 20:41:45 10° NW 20:44:19 26° NW 20:44:19 26° NW
Cosmos 2333 Rocket 4.3 20:47:29 10° W 20:56:43 10° N 20:56:43 10° N
